Vertical_Velocity
-3 -2 2 -1 -2 -2 -0 -0 1 0 3 -1 -1 0 0 -0 -0 -2 -1 -3 1 1 1 -0 -1 1 0 0 0 -0 -0 -2 0 -1 -1 -1 -1 -2 -1 -1 -1 -1 -0
4 -3 2 -0 -1 -2 -1 0 1 -0 2 -3 -0 0 -1 -0 1 -0 -0 -3 -0 -1 0 0 1 1 -0 -1 1 -1 1 -1 -0 1 -1 1 0 -1 -0 -0 -0 -0 -1
-1 -3 -1 -2 1 -2 -1 -3 0 1 1 -1 1 0 -0 -0 -1 -2 1 -2 -2 -0 -3 1 -0 0 3 -3 2 -0 0 -2 -1 2 -1 -1 -0 -0 -1 -1 -2 -2 -2
3 -1 -0 -3 -1 1 -1 -3 -0 0 0 -0 -1 0 -3 1 -0 1 -2 -3 -0 -1 1 -1 -1 0 -0 -1 0 0 0 -0 -2 2 -2 0 1 1 -0 -2 -1 -1 -1
2 1 0 0 -3 4 0 -5 1 -1 1 0 -1 0 -2 3 1 -0 -2 0 -0 -1 1 -0 -2 -1 -1 -1 -0 0 -1 -1 0 -2 -1 -1 -2 -0 -0 -0 -0 -1 -2
2 1 1 -1 -3 -0 2 -4 -1 -3 -1 -0 1 0 -0 1 -2 0 -1 0 -1 -0 -1 1 -0 -2 0 -2 -1 0 -1 -1 -0 0 -0 -1 0 -1 -1 -1 -2 -1 -2
1 3 2 -1 -1 -3 1 -1 -3 -2 -1 -1 0 1 0 1 -0 2 0 -1 -1 0 -1 1 0 0 1 -2 -1 0 -1 -0 1 1 -1 -1 -1 -0 -1 -2 -2 -1 -0
5 3 4 0 -3 -2 -1 2 -1 -0 -1 -0 1 -2 1 -1 1 1 0 -1 2 -2 1 1 -0 1 -1 -3 -0 -1 -2 -1 -1 -1 -2 -1 -1 -2 -1 -1 -1 -1 -0
4 2 3 1 -2 -1 -3 0 -2 1 -2 2 0 1 -2 1 -0 3 -1 0 1 1 -1 -2 -0 2 -1 -1 -1 -1 -4 1 -1 -1 -3 -1 -1 -1 -2 -2 -1 -1 -1
3 4 3 2 1 1 -2 -1 -2 0 -1 1 0 1 -0 2 -1 -1 1 -1 -2 1 0 -0 -2 0 -1 0 -1 -1 -4 -2 -2 -2 -2 -2 0 1 -1 -1 -1 -1 -2
3 4 6 1 1 2 1 -0 -1 -2 -1 -0 0 -2 2 0 -3 -2 -2 -1 -0 1 -2 -0 -0 -1 -2 -1 1 -2 -1 -2 -2 -2 -2 -1 -1 -2 -2 -1 -1 -2 -2
3 2 8 6 3 -1 2 1 1 1 1 -0 1 -4 -3 -1 -2 -4 -2 -3 -0 -2 -2 0 -0 -0 -1 0 1 -2 -2 -1 -0 -2 -2 -2 -2 -2 -3 -2 -1 -1 -1
2 1 -0 6 6 3 0 1 -0 1 1 1 1 -2 -2 -1 -1 -2 -2 -2 -4 -4 -3 -2 0 -1 -0 1 -0 -2 -2 -0 -1 -1 -0 -0 0 -1 -1 -1 -1 -0 -1
-5 2 5 2 4 7 4 5 3 1 2 1 3 0 1 1 -0 -1 -0 -1 1 -0 -2 -4 -1 -2 -1 0 1 -1 -1 -1 -1 -1 0 -2 1 0 -1 -1 -1 -2 -1
11 2 2 2 3 5 5 4 4 3 1 0 1 -1 0 2 2 -1 1 2 1 1 -0 0 -0 -0 1 1 -0 -2 -1 -1 -1 -0 -0 -1 -0 -1 -1 0 -2 -2 -1
-2 -4 -0 -1 4 1 4 5 5 4 2 1 1 0 1 -0 1 -0 1 -0 0 -1 -0 -0 1 1 1 0 -0 -1 -1 -1 -1 -0 -1 -0 -1 1 -2 -1 -1 -2 -2
2 8 7 6 1 4 4 6 7 5 4 3 1 2 1 -0 1 1 0 1 -0 -0 0 -0 0 1 0 1 -1 -1 -1 -0 0 -1 -1 -1 -1 -2 -1 -0 -1 1 -1
4 -7 3 2 1 0 2 4 4 3 3 3 3 3 1 2 1 0 2 -0 -0 -0 1 1 -0 -0 -2 -2 -1 -0 -1 -2 0 -1 -0 -0 0 -2 -1 -3 -2 -1 1
-1 -3 -6 5 2 -2 -0 -0 5 4 2 1 2 2 2 0 2 2 -1 -1 -0 -0 1 1 1 1 -1 -1 -1 -0 -1 -2 -1 -1 -1 -2 -2 -2 -1 -3 -1 -2 -1
-2 1 2 1 -4 -1 1 1 -1 0 -0 -0 1 2 3 2 2 3 2 -0 1 0 1 1 0 -1 0 -1 -2 -2 -1 -1 -0 -0 0 -1 -0 -1 1 -2 -1 -1 -2
-3 -4 -0 1 -2 5 1 -1 2 3 -4 3 3 6 5 3 -0 3 1 -1 0 3 1 0 -0 2 -0 -1 -0 -1 -1 -1 1 -0 -3 -3 2 0 1 1 1 -1 -1
3 -4 7 11 3 3 1 8 1 10 10 14 14 4 3 3 1 6 3 2 2 2 0 0 1 -0 1 1 -0 -0 2 -0 4 0 -1 -1 -2 1 -0 2 2 -1 -0
-2 10 8 4 2 -6 10 10 10 -10 2 10 8 8 12 10 4 2 -0 -0 2 2 2 0 -0 -0 -0 1 -0 1 -2 3 4 1 2 1 3 2 4 -1 -1 1 0
16 12 -4 5 5 7 -10 -14 15 -3 -17 -6 11 0 -2 6 4 4 8 5 2 0 0 3 4 3 -4 -2 -4 -0 -1 4 -0 -5 3 -1 1 1 1 1 -2 -2 -4
-16 -3 6 15 10 -3 7 -9 2 18 9 -9 -11 6 14 7 -7 -7 -5 17 6 8 6 5 15 0 -0 -3 -1 -1 1 1 4 -2 -6 -0 1 1 -0 -0 -1 1 1
11 14 -14 -29 8 -3 -23 4 6 -23 -2 -7 -7 3 -9 -13 -4 -9 -2 -8 -9 5 -2 -11 3 6 4 4 3 1 1 0 4 1 -0 5 1 -2 -1 2 -1 -3 -4
Height
3179 3181 3182 3183 3184 3185 3185 3186 3187 3188 3189 3190 3190 3190 3190 3190 3190 3190 3190 3190 3188 3189 3191 3191 3192 3193 3192 3192 3192 3192 3192 3192 3191 3191 3190 3190 3189 3189 3188 3187 3187 3186 3186
3180 3181 3182 3182 3184 3185 3186 3186 3187 3188 3190 3190 3191 3191 3191 3191 3191 3191 3191 3190 3190 3190 3190 3192 3192 3193 3193 3193 3193 3193 3193 3193 3192 3192 3191 3191 3190 3190 3189 3189 3188 3188 3187
3179 3181 3181 3182 3184 3185 3186 3187 3187 3189 3190 3191 3191 3192 3192 3192 3192 3192 3192 3192 3192 3192 3192 3193 3193 3193 3194 3194 3194 3194 3195 3194 3193 3193 3192 3192 3192 3192 3191 3191 3190 3190 3190
3178 3180 3181 3182 3183 3185 3187 3187 3188 3189 3190 3191 3192 3193 3193 3193 3193 3193 3194 3194 3193 3194 3193 3194 3194 3195 3195 3195 3195 3195 3195 3195 3194 3195 3194 3194 3194 3193 3193 3192 3192 3191 3191
3177 3179 3181 3182 3184 3185 3187 3188 3189 3189 3191 3192 3192 3193 3193 3194 3195 3195 3195 3195 3195 3195 3195 3196 3196 3196 3197 3197 3197 3197 3197 3196 3196 3195 3195 3195 3194 3194 3194 3193 3193 3192 3191
3176 3179 3181 3183 3184 3186 3188 3189 3189 3190 3191 3192 3193 3194 3195 3195 3196 3196 3196 3196 3196 3197 3197 3198 3198 3198 3198 3199 3199 3198 3198 3198 3197 3197 3197 3196 3196 3195 3194 3194 3193 3193 3192
3175 3178 3180 3183 3185 3186 3188 3189 3190 3192 3193 3193 3194 3195 3196 3197 3197 3197 3197 3198 3198 3199 3199 3200 3200 3200 3200 3200 3200 3200 3200 3199 3199 3198 3198 3197 3196 3196 3195 3195 3194 3193 3193
3172 3177 3180 3182 3185 3187 3188 3190 3191 3192 3194 3194 3195 3196 3197 3197 3197 3198 3199 3199 3200 3201 3201 3202 3202 3202 3202 3202 3201 3201 3201 3201 3200 3199 3198 3198 3197 3196 3196 3196 3195 3194 3194
3170 3175 3178 3181 3184 3187 3189 3191 3192 3193 3195 3196 3196 3197 3197 3198 3198 3199 3200 3201 3202 3202 3203 3203 3204 3204 3204 3203 3203 3203 3203 3203 3202 3201 3200 3199 3198 3198 3197 3196 3196 3195 3194
3168 3172 3176 3179 3182 3186 3189 3191 3193 3194 3196 3197 3197 3197 3198 3199 3200 3200 3201 3202 3203 3204 3204 3205 3206 3206 3206 3205 3205 3205 3205 3204 3204 3203 3202 3201 3200 3199 3198 3197 3196 3196 3194
3165 3170 3175 3179 3181 3184 3188 3190 3192 3194 3196 3197 3198 3198 3200 3201 3201 3201 3202 3203 3204 3205 3205 3206 3207 3207 3207 3207 3207 3206 3206 3205 3205 3204 3203 3202 3201 3200 3199 3198 3197 3196 3195
3163 3167 3171 3176 3179 3182 3185 3189 3191 3193 3196 3197 3199 3200 3201 3202 3202 3203 3204 3204 3205 3206 3206 3207 3208 3207 3208 3208 3208 3207 3206 3206 3205 3204 3204 3203 3202 3201 3200 3199 3198 3197 3195
3161 3164 3168 3173 3177 3180 3183 3187 3191 3193 3195 3197 3198 3200 3201 3202 3203 3204 3204 3205 3206 3207 3207 3207 3207 3208 3207 3208 3207 3207 3206 3206 3205 3204 3203 3203 3202 3201 3200 3199 3198 3196 3195
3159 3162 3166 3170 3174 3178 3181 3184 3188 3192 3194 3196 3198 3199 3201 3202 3202 3203 3204 3204 3205 3206 3206 3206 3207 3207 3207 3208 3207 3206 3206 3205 3204 3203 3202 3202 3201 3199 3199 3198 3197 3196 3194
3155 3159 3163 3167 3171 3176 3180 3182 3185 3189 3192 3195 3196 3198 3200 3201 3202 3202 3203 3204 3204 3205 3205 3205 3206 3206 3207 3207 3207 3206 3205 3204 3203 3202 3201 3200 3199 3198 3197 3196 3195 3194 3192
3152 3156 3160 3164 3167 3171 3176 3180 3182 3185 3189 3191 3194 3196 3197 3199 3200 3201 3202 3202 3203 3203 3203 3204 3204 3205 3205 3205 3205 3204 3203 3202 3201 3200 3199 3198 3196 3195 3194 3193 3192 3191 3190
3148 3151 3154 3159 3163 3167 3171 3176 3179 3181 3185 3188 3190 3193 3195 3196 3197 3198 3199 3200 3200 3200 3201 3201 3202 3202 3203 3203 3203 3202 3201 3200 3199 3198 3196 3195 3193 3192 3191 3189 3188 3187 3186
3143 3146 3150 3154 3158 3162 3167 3171 3174 3177 3180 3183 3186 3189 3191 3193 3194 3195 3196 3196 3197 3197 3198 3198 3199 3199 3200 3200 3200 3199 3198 3197 3196 3195 3193 3192 3190 3189 3188 3186 3185 3184 3183
3139 3143 3146 3150 3154 3158 3162 3165 3169 3172 3175 3178 3181 3184 3186 3189 3190 3191 3192 3192 3193 3193 3194 3195 3195 3196 3196 3197 3196 3196 3195 3194 3193 3192 3190 3189 3187 3185 3184 3183 3181 3180 3179
3134 3139 3143 3146 3151 3154 3156 3158 3161 3165 3170 3173 3176 3179 3181 3184 3186 3186 3186 3187 3189 3189 3190 3191 3191 3192 3192 3193 3193 3193 3192 3191 3190 3189 3187 3186 3184 3182 3181 3179 3177 3176 3174
3131 3135 3138 3141 3145 3148 3151 3153 3156 3159 3164 3168 3170 3173 3176 3178 3180 3181 3182 3183 3184 3185 3185 3186 3187 3188 3189 3189 3189 3189 3188 3187 3186 3186 3184 3183 3180 3178 3177 3175 3174 3172 3170
3125 3131 3135 3136 3137 3140 3145 3148 3150 3154 3157 3161 3165 3167 3170 3172 3175 3176 3177 3178 3180 3180 3181 3182 3183 3184 3184 3184 3185 3184 3184 3184 3182 3181 3180 3178 3176 3174 3172 3171 3168 3166 3164
3121 3126 3130 3132 3134 3136 3138 3141 3144 3147 3149 3154 3159 3161 3165 3166 3168 3171 3173 3173 3175 3176 3177 3178 3178 3179 3179 3179 3179 3179 3178 3177 3177 3176 3175 3174 3171 3169 3166 3164 3162 3160 3157
3115 3118 3124 3127 3129 3131 3132 3135 3138 3142 3145 3148 3150 3151 3156 3160 3164 3167 3168 3169 3170 3171 3173 3173 3174 3174 3174 3174 3173 3173 3172 3170 3169 3167 3168 3167 3164 3162 3158 3156 3155 3153 3152
3108 3115 3119 3122 3123 3123 3128 3128 3132 3133 3136 3142 3146 3149 3151 3153 3156 3157 3161 3163 3165 3166 3167 3167 3167 3167 3167 3167 3166 3166 3165 3163 3162 3159 3156 3157 3156 3155 3153 3150 3148 3147 3146
3104 3109 3115 3115 3120 3123 3124 3127 3130 3129 3132 3135 3139 3145 3146 3148 3151 3152 3155 3158 3159 3159 3161 3161 3161 3160 3159 3159 3159 3159 3158 3156 3154 3152 3149 3148 3146 3145 3145 3143 3141 3140 3138